Terminal Aerodrome Forecast
Issued by NWS Northern Indiana

Home | Current Version | Previous Version | Graphics & Text | Print | Product List | Glossary On
Versions: 1 2 3 4 5 6 7 8 9 10 11 12 13
000
FTUS43 KIWX 220500
TAFFWA
TAF
KFWA 220524Z 2206/2306 24010KT P6SM BKN035
      TEMPO 2206/2210 5SM -SHRA BR BKN020
     FM221300 32019G26KT P6SM SKC
     FM230200 32008KT P6SM SKC=

USA.gov is the U.S. government's official web portal to all federal, state and local government web resources and services.